Home   Weather   Darwin   Past weeks

Flag for Australia Past Weather in Darwin, Northern Territory, Australia — Yesterday and Last 2 Weeks

Now
81 °F

Partly cloudy.


Feels Like: 86 °F
Forecast: 79 / 84 °F
Wind: 16 mph from Northwest

Location: Darwin Airport

Current Time: Jan 25, 2017 at 5:09:07 am

Latest Report: Jan 25, 2017 at 4:30 am


Visibility: N/A

Pressure: 29.68 "Hg

Humidity: 84%

Dew Point: 75 °F

Location of DarwinLocation

Past Weather in Darwin — Graph

°F

Darwin Temperature Yesterday

Maximum temperature yesterday: 81 °F (at 4:00 pm)
Minimum temperature yesterday: 73 °F (at 1:00 am)
Average temperature yesterday: 77 °F

High & Low Weather Summary for the Past Weeks

 TemperatureHumidityPressure
High91 °F (Jan 15, 2:30 pm)100% (Jan 12, 7:00 am)29.89 "Hg (Jan 12, 7:00 am)
Low73 °F (Jan 24, 1:00 am)46% (Jan 17, 3:00 pm)29.62 "Hg (Jan 10, 3:30 am)
Average83 °F80%29.74 "Hg
* Reported Jan 10 3:30 am — Jan 25 3:30 am, Darwin, Weather by CustomWeather, © 2017

Note: Actual official high and low records may vary slightly from our data, if they occured in-between our weather recording intervals... More about our weather records

Advertising

Darwin Weather History for the Previous 24 Hours

Scroll right to see more
 ConditionsComfort  
Time TempWeatherWind HumidityBarometerVisibility
3:30 am
Wed, Jan 25
81 °FPassing clouds.15 mph84%29.68 "HgN/A
3:00 am82 °FPassing clouds.15 mph79%29.68 "HgN/A
2:30 am82 °FClear.12 mph79%29.71 "HgN/A
2:00 am81 °FPassing clouds.10 mph84%29.71 "HgN/A
1:30 am81 °FPassing clouds.8 mph84%29.71 "HgN/A
1:00 am81 °FPassing clouds.9 mph84%29.74 "HgN/A
12:30 am81 °FPartly cloudy.10 mph84%29.74 "HgN/A
12:00 am81 °FLight rain. Partly cloudy.9 mph84%29.74 "HgN/A
11:30 pm
Tue, Jan 24
81 °FLight rain. Partly cloudy.9 mph84%29.77 "HgN/A
11:00 pm81 °FPartly cloudy.9 mph84%29.77 "HgN/A
10:30 pm79 °FSprinkles. Mostly cloudy.6 mph89%29.74 "HgN/A
10:00 pm79 °FScattered showers. Clear.6 mph94%29.74 "HgN/A
9:30 pm81 °FRain showers. Mostly cloudy.7 mph84%29.74 "Hg6 mi
9:00 pm81 °FSprinkles. Partly cloudy.9 mph84%29.74 "HgN/A
8:30 pm81 °FScattered showers. Mostly cloudy.9 mph84%29.74 "HgN/A
8:00 pm81 °FPassing clouds.10 mph84%29.74 "HgN/A
7:30 pm81 °FSprinkles. Broken clouds.9 mph79%29.71 "HgN/A
7:00 pm81 °FPartly sunny.9 mph79%29.71 "HgN/A
6:30 pm81 °FPartly sunny.7 mph84%29.68 "HgN/A
6:00 pm81 °FScattered showers. Partly sunny.10 mph84%29.68 "HgN/A
5:30 pm81 °FPartly sunny.12 mph84%29.68 "HgN/A
5:00 pm81 °FPartly sunny.16 mph84%29.65 "HgN/A
4:30 pm81 °FPartly sunny.17 mph84%29.65 "HgN/A
4:00 pm81 °FLight rain. More clouds than sun.10 mph89%29.65 "HgN/A
3:30 pm79 °FLight rain. More clouds than sun.9 mph89%29.68 "HgN/A
3:00 pm79 °FLight rain. More clouds than sun.13 mph89%29.68 "HgN/A
2:30 pm79 °FRain. More clouds than sun.18 mph89%29.71 "HgN/A
2:03 pm79 °FLight rain. Broken clouds.12 mph94%29.71 "HgN/A
1:30 pm79 °FLight rain. More clouds than sun.14 mph89%29.74 "HgN/A
1:00 pm79 °FRain. More clouds than sun.10 mph89%29.74 "HgN/A
12:30 pm79 °FLight rain. Overcast.13 mph84%29.74 "HgN/A
12:00 pm79 °FLow clouds.13 mph79%29.74 "HgN/A
11:30 am79 °FLight rain. More clouds than sun.15 mph89%29.77 "HgN/A
11:10 am79 °FLight rain. More clouds than sun.17 mph89%29.77 "HgN/A
11:00 am77 °FRain. More clouds than sun.16 mph89%29.77 "Hg4 mi
10:54 am79 °FLots of rain. More clouds than sun.18 mph89%29.77 "Hg1 mi
10:30 am79 °FLight rain. More clouds than sun.13 mph89%29.77 "HgN/A
10:00 am77 °FLight rain. Overcast.13 mph94%29.80 "HgN/A
9:30 am77 °FLight rain. More clouds than sun.9 mph94%29.77 "HgN/A
9:00 am77 °FLight rain. Broken clouds.8 mph94%29.77 "HgN/A
8:30 am75 °FLight rain. Partly sunny.9 mph100%29.77 "HgN/A
8:00 am75 °FRain. Partly sunny.9 mph94%29.77 "HgN/A
7:30 am73 °FRain. Partly sunny.10 mph100%29.74 "Hg5 mi
7:00 am73 °FHeavy rain. Passing clouds.9 mph100%29.74 "Hg5 mi
6:30 am73 °FHeavy rain. Passing clouds.10 mph94%29.71 "Hg5 mi
6:00 am73 °FHeavy rain. Partly cloudy.14 mph94%29.71 "Hg5 mi
5:30 am73 °FHeavy rain. Low clouds.15 mph100%29.71 "Hg5 mi
5:01 am75 °FHeavy rain. Passing clouds.13 mph94%29.74 "Hg2 mi
Weather by CustomWeather, © 2017

See weather overviewHow to use our weather pages